This is the latest recevied weather packets stored in our database for station/object HS6PNA-1. If no packets are shown the sender has not sent any weather packets the latest 10 day(s).
| Time | Temp. | Humidity | Pressure | Rain* | Wind** | Luminosity | Snow |
|---|---|---|---|---|---|---|---|
| 1777479362 | 31.67° C | 72% | 1005 hPa | - | - | 0 W/m² | - |
| 1777478437 | 31.67° C | 70% | 1005 hPa | - | - | 0 W/m² | - |
| 1777477513 | 31.67° C | 73% | 1004 hPa | - | - | 0 W/m² | - |
| 1777476588 | 31.67° C | 71% | 1004 hPa | - | - | 0 W/m² | - |
| 1777475664 | 31.67° C | 71% | 1004 hPa | - | - | 0 W/m² | - |
| 1777474739 | 31.11° C | 72% | 1004 hPa | - | - | 0 W/m² | - |
| 1777473815 | 31.11° C | 71% | 1003 hPa | - | - | 0 W/m² | - |
| 1777472890 | 31.11° C | 71% | 1003 hPa | - | - | 0 W/m² | - |
| 1777471966 | 31.67° C | 68% | 1003 hPa | - | - | 0 W/m² | - |
| 1777471041 | 31.67° C | 66% | 1002 hPa | - | - | 0 W/m² | - |
| 1777470117 | 31.67° C | 65% | 1002 hPa | - | - | 0 W/m² | - |
| 1777469193 | 31.67° C | 66% | 1002 hPa | - | - | 0 W/m² | - |
| 1777468268 | 31.67° C | 66% | 1002 hPa | - | - | 0 W/m² | - |
| 1777467343 | 31.67° C | 67% | 1002 hPa | - | - | 0 W/m² | - |
| 1777466419 | 31.67° C | 64% | 1001 hPa | - | - | 0 W/m² | - |
| 1777465494 | 31.11° C | 67% | 1001 hPa | - | - | 0 W/m² | - |
| 1777464570 | 32.22° C | 63% | 1001 hPa | - | - | 0 W/m² | - |
| 1777463645 | 32.22° C | 64% | 1001 hPa | - | - | 0 W/m² | - |
| 1777462721 | 31.67° C | 64% | 1001 hPa | - | - | 0 W/m² | - |
| 1777461796 | 32.22° C | 63% | 1001 hPa | - | - | 11 W/m² | - |
| 1777460872 | 32.22° C | 62% | 1001 hPa | - | - | 18 W/m² | - |
| 1777459947 | 31.67° C | 63% | 1001 hPa | - | - | 23 W/m² | - |
| 1777458829 | 32.22° C | 60% | 1002 hPa | - | - | 22 W/m² | - |
| 1777457905 | 30.56° C | 57% | 1002 hPa | - | - | 26 W/m² | - |
| 1777456980 | 31.67° C | 59% | 1001 hPa | - | - | 58 W/m² | - |
* Rain since midnight (hover to see other rain measurements)
** Current wind speed in m/s (hover to see current wind gust speed)